Location: Saint-Usage
(47.1052°N, 5.2587°E)
Time: 15:42:18
(UTC+02:00)

ISS - Pass Details

Date: 29 September 2021
Orbit: 417 x 423 km, 51.6° (Epoch: 17 October)

Event Time Altitude Azimuth Distance (km) Brightness Sun altitude
Rises 21:48:16 0° 294° (WNW) 2,367 1.5 -25.0°
Reaches altitude 10° 21:50:23 10° 292° (WNW) 1,501 0.1 -25.3°
Enters shadow 21:52:14 30° 284° (WNW) 785 -1.8 -25.6°
